Location: Forst
(46.9333°N, 15.4333°E)
Time: 17:16:38
(UTC+00:00)

Tiangong - Pass Details

Date: 29 September 2021
Orbit: 382 x 385 km, 41.5° (Epoch: 18 October)

Event Time Altitude Azimuth Distance (km) Brightness Sun altitude
Exits shadow 02:43:04 12° 140° (SE) 1,261 3.9 -22.8°
Drops below altitude 10° 02:43:52 10° 125° (SE) 1,394 4.3 -22.6°
Sets 02:46:43 0° 97° (E) 2,249 6.0 -22.2°
